Temp
-8 -8 -8 -8 -8 -7 -7 -7 -7 -6 -6 -6 -6 -6 -5 -5 -5 -5 -4 -5 -5 -6 -7 -7 -7 -7 -7 -7 -6 -6 -6 -6 -7 -7 -7 -7 -8 -6 -6 -7 -7 -7 -7 -6 -6
-8 -8 -8 -8 -8 -7 -7 -7 -7 -7 -6 -6 -6 -6 -5 -5 -5 -5 -5 -5 -5 -6 -7 -7 -6 -7 -7 -7 -6 -8 -7 -7 -7 -7 -7 -7 -7 -8 -7 -7 -7 -7 -7 -7 -6
-8 -8 -8 -8 -8 -8 -8 -7 -7 -7 -7 -6 -6 -6 -6 -5 -5 -4 -5 -5 -5 -6 -7 -6 -7 -7 -7 -7 -8 -7 -6 -7 -7 -7 -7 -7 -7 -8 -6 -7 -7 -7 -7 -6 -6
-9 -9 -9 -9 -9 -8 -8 -8 -8 -7 -7 -6 -6 -6 -6 -5 -5 -5 -5 -4 -5 -5 -6 -7 -7 -7 -7 -8 -8 -7 -7 -6 -7 -8 -8 -8 -7 -8 -8 -7 -8 -7 -7 -6 -6
-9 -9 -9 -9 -9 -9 -8 -8 -8 -8 -7 -7 -6 -6 -6 -5 -5 -5 -5 -5 -5 -6 -6 -6 -7 -7 -8 -8 -7 -8 -7 -7 -8 -7 -7 -7 -8 -8 -8 -8 -8 -7 -7 -7 -6
-10 -9 -9 -9 -9 -9 -8 -8 -8 -8 -8 -7 -6 -6 -6 -6 -6 -5 -5 -5 -5 -5 -6 -6 -6 -7 -8 -8 -8 -8 -8 -8 -8 -7 -7 -6 -8 -8 -8 -7 -7 -7 -7 -6 -6
-10 -10 -10 -10 -9 -9 -9 -9 -9 -8 -8 -7 -7 -7 -6 -6 -6 -6 -6 -5 -6 -6 -5 -5 -6 -7 -8 -8 -8 -8 -7 -7 -7 -7 -8 -7 -7 -8 -8 -7 -7 -7 -7 -6 -6
-10 -10 -10 -10 -10 -10 -9 -9 -9 -8 -8 -7 -7 -7 -6 -7 -6 -6 -6 -6 -6 -6 -6 -6 -6 -6 -7 -8 -8 -8 -7 -6 -8 -7 -7 -6 -8 -8 -8 -7 -7 -7 -7 -7 -7
-10 -10 -10 -10 -10 -10 -9 -9 -9 -9 -8 -8 -7 -7 -7 -7 -7 -7 -6 -6 -6 -6 -6 -6 -6 -7 -7 -7 -8 -7 -7 -7 -7 -6 -7 -6 -7 -8 -7 -8 -7 -7 -7 -7 -7
-10 -10 -10 -10 -10 -10 -10 -9 -9 -9 -9 -8 -8 -8 -7 -7 -7 -7 -7 -7 -6 -6 -6 -6 -6 -6 -7 -8 -7 -6 -6 -6 -7 -7 -7 -7 -7 -7 -7 -8 -7 -8 -8 -8 -7
-10 -10 -10 -10 -10 -10 -10 -10 -9 -9 -9 -9 -8 -8 -8 -7 -7 -7 -7 -7 -7 -6 -6 -6 -6 -7 -8 -8 -7 -7 -7 -7 -7 -7 -6 -7 -7 -7 -8 -8 -8 -8 -7 -8 -7
-10 -10 -10 -10 -10 -10 -10 -10 -10 -9 -9 -9 -9 -8 -8 -7 -7 -7 -7 -7 -7 -7 -7 -6 -6 -7 -8 -8 -8 -8 -8 -7 -7 -7 -7 -7 -7 -7 -7 -8 -7 -8 -8 -7 -8
-10 -10 -10 -10 -10 -10 -10 -9 -9 -9 -9 -9 -9 -8 -8 -8 -7 -7 -7 -7 -7 -7 -7 -7 -8 -8 -6 -7 -7 -7 -8 -7 -7 -7 -7 -7 -7 -7 -7 -7 -7 -7 -7 -7 -8
-10 -10 -10 -10 -10 -10 -10 -9 -9 -9 -9 -9 -9 -9 -8 -8 -7 -7 -7 -7 -7 -7 -7 -7 -7 -6 -6 -6 -7 -8 -8 -8 -8 -8 -7 -7 -6 -7 -7 -7 -7 -7 -7 -7 -8
-10 -10 -10 -10 -10 -10 -10 -10 -9 -9 -10 -10 -9 -9 -9 -8 -8 -7 -8 -7 -7 -7 -7 -7 -7 -7 -7 -6 -7 -8 -8 -8 -8 -8 -7 -7 -7 -6 -7 -8 -7 -7 -7 -7 -7
-10 -10 -10 -10 -10 -10 -10 -10 -10 -10 -10 -9 -9 -9 -9 -9 -8 -8 -8 -8 -8 -7 -7 -7 -6 -7 -7 -7 -6 -8 -7 -7 -7 -7 -7 -7 -7 -6 -7 -7 -7 -7 -7 -7 -7
-10 -10 -10 -10 -11 -11 -11 -11 -10 -10 -10 -10 -9 -9 -9 -9 -9 -8 -8 -8 -8 -8 -7 -7 -7 -7 -7 -6 -7 -7 -8 -8 -7 -6 -6 -7 -7 -7 -7 -6 -7 -7 -7 -7 -7
-11 -10 -10 -10 -11 -11 -11 -11 -11 -11 -11 -11 -9 -9 -9 -9 -8 -9 -8 -8 -8 -8 -9 -8 -8 -7 -7 -7 -8 -7 -8 -7 -6 -6 -6 -6 -7 -7 -7 -7 -7 -7 -7 -7 -8
-11 -11 -11 -12 -12 -11 -11 -11 -11 -11 -11 -11 -10 -10 -10 -9 -9 -9 -8 -8 -8 -8 -8 -9 -8 -9 -7 -7 -7 -8 -8 -8 -7 -7 -7 -6 -7 -8 -7 -7 -7 -7 -7 -7 -8
-12 -12 -12 -12 -12 -12 -11 -11 -11 -11 -10 -10 -10 -11 -11 -10 -9 -9 -9 -8 -9 -8 -8 -9 -9 -9 -8 -7 -7 -8 -8 -8 -8 -7 -7 -7 -8 -7 -8 -9 -8 -7 -7 -8 -8
-12 -12 -12 -12 -12 -12 -11 -11 -11 -10 -10 -10 -10 -11 -10 -11 -11 -10 -10 -9 -8 -9 -8 -9 -8 -8 -9 -7 -8 -8 -8 -8 -7 -7 -7 -8 -9 -8 -8 -8 -9 -8 -8 -8 -8
-12 -12 -12 -12 -12 -12 -12 -12 -11 -10 -11 -10 -10 -10 -10 -12 -11 -10 -10 -10 -10 -9 -9 -8 -8 -9 -9 -9 -8 -9 -8 -9 -8 -8 -8 -7 -8 -9 -8 -8 -8 -8 -8 -8 -8
-12 -12 -12 -12 -12 -12 -12 -11 -11 -11 -11 -11 -11 -11 -10 -10 -10 -10 -11 -11 -9 -9 -9 -9 -9 -9 -9 -9 -8 -8 -9 -9 -8 -9 -8 -8 -8 -9 -9 -8 -8 -8 -8 -9 -9
-12 -12 -12 -12 -12 -12 -12 -12 -12 -12 -11 -11 -11 -11 -10 -10 -10 -11 -11 -10 -9 -9 -9 -9 -10 -9 -8 -9 -8 -9 -8 -9 -9 -8 -8 -8 -8 -8 -9 -8 -9 -9 -9 -9 -9
-12 -12 -12 -12 -12 -12 -11 -12 -12 -12 -12 -11 -11 -11 -11 -11 -11 -11 -11 -12 -10 -10 -9 -9 -9 -9 -8 -9 -9 -9 -9 -9 -8 -8 -8 -9 -9 -9 -9 -9 -9 -9 -9 -9 -9
-13 -12 -12 -12 -12 -12 -12 -12 -12 -12 -12 -11 -11 -12 -12 -11 -11 -13 -12 -12 -12 -10 -10 -10 -9 -9 -10 -9 -9 -9 -9 -9 -9 -9 -9 -9 -9 -9 -10 -9 -9 -10 -9 -9 -9
-13 -13 -12 -12 -12 -13 -13 -13 -12 -12 -12 -12 -12 -12 -12 -11 -11 -12 -11 -11 -11 -11 -10 -10 -10 -10 -9 -10 -10 -10 -10 -9 -10 -10 -9 -9 -10 -10 -9 -10 -10 -10 -10 -10 -9
Height
5914 5916 5918 5919 5920 5921 5923 5924 5924 5925 5927 5928 5928 5930 5932 5933 5933 5933 5934 5935 5938 5941 5942 5943 5944 5945 5945 5945 5947 5947 5938 5947 5958 5953 5955 5950 5951 5944 5941 5938 5936 5934 5932 5930 5928
5910 5913 5915 5917 5918 5920 5921 5922 5922 5923 5925 5925 5926 5928 5930 5931 5931 5932 5933 5932 5935 5939 5940 5942 5943 5945 5946 5947 5949 5949 5942 5953 5954 5953 5955 5952 5951 5946 5944 5939 5937 5936 5934 5934 5931
5906 5909 5912 5914 5915 5918 5919 5920 5921 5922 5923 5924 5925 5926 5928 5928 5929 5929 5930 5930 5933 5936 5939 5941 5943 5944 5945 5946 5953 5953 5952 5955 5953 5951 5951 5956 5950 5950 5945 5927 5939 5938 5937 5935 5932
5902 5906 5908 5910 5912 5915 5917 5918 5920 5921 5922 5922 5923 5924 5925 5926 5928 5927 5928 5929 5931 5934 5937 5939 5942 5944 5946 5950 5952 5952 5954 5953 5955 5951 5952 5954 5954 5951 5947 5944 5942 5940 5938 5935 5934
5898 5902 5904 5906 5909 5912 5914 5916 5917 5919 5919 5920 5921 5922 5922 5924 5925 5926 5927 5928 5930 5933 5935 5937 5940 5943 5945 5954 5952 5953 5955 5952 5952 5951 5950 5950 5951 5949 5947 5946 5941 5941 5938 5936 5933
5893 5897 5900 5903 5906 5908 5910 5912 5915 5916 5917 5918 5919 5920 5920 5922 5923 5924 5925 5927 5930 5932 5934 5935 5937 5940 5941 5948 5950 5953 5952 5953 5952 5952 5949 5949 5951 5947 5946 5943 5941 5940 5937 5936 5934
5888 5892 5896 5899 5902 5904 5907 5909 5911 5913 5914 5916 5917 5917 5918 5921 5922 5923 5925 5927 5929 5931 5932 5934 5936 5939 5943 5946 5948 5949 5951 5953 5954 5954 5951 5949 5951 5945 5946 5943 5940 5939 5937 5935 5933
5884 5887 5891 5895 5898 5901 5903 5906 5908 5911 5912 5914 5914 5915 5916 5919 5920 5922 5923 5926 5928 5930 5932 5934 5934 5937 5939 5943 5947 5948 5952 5957 5952 5952 5951 5951 5947 5938 5946 5943 5940 5938 5937 5934 5933
5879 5883 5886 5890 5893 5897 5900 5903 5905 5908 5910 5911 5913 5913 5915 5916 5918 5920 5922 5924 5927 5929 5932 5934 5935 5936 5941 5944 5948 5952 5951 5950 5956 5950 5950 5950 5951 5942 5946 5942 5940 5938 5936 5932 5930
5873 5877 5881 5885 5889 5892 5896 5899 5901 5904 5906 5908 5910 5913 5913 5915 5916 5918 5920 5922 5924 5927 5931 5933 5934 5936 5940 5945 5950 5955 5956 5952 5952 5953 5949 5951 5952 5951 5944 5944 5941 5936 5935 5931 5927
5867 5871 5875 5880 5884 5888 5892 5895 5898 5900 5902 5905 5907 5908 5910 5912 5914 5916 5918 5920 5923 5926 5928 5930 5933 5934 5939 5944 5948 5948 5949 5951 5951 5949 5947 5951 5949 5948 5943 5942 5941 5937 5933 5929 5924
5861 5866 5870 5874 5878 5882 5886 5888 5892 5896 5899 5900 5902 5905 5907 5909 5911 5913 5915 5918 5921 5924 5927 5929 5931 5934 5937 5937 5941 5944 5946 5949 5950 5946 5945 5948 5949 5945 5941 5941 5939 5937 5929 5926 5921
5855 5859 5863 5867 5872 5877 5880 5884 5887 5891 5893 5896 5898 5900 5903 5906 5908 5910 5913 5916 5918 5921 5924 5926 5933 5929 5932 5935 5937 5939 5944 5947 5949 5946 5944 5945 5944 5940 5938 5937 5936 5934 5929 5925 5923
5848 5852 5857 5861 5867 5870 5874 5879 5883 5886 5889 5892 5894 5896 5900 5902 5905 5907 5909 5913 5915 5919 5921 5924 5925 5927 5929 5932 5934 5938 5942 5942 5943 5944 5947 5945 5948 5942 5939 5935 5933 5930 5927 5924 5921
5840 5845 5850 5855 5860 5863 5870 5873 5877 5882 5886 5886 5887 5893 5896 5900 5901 5903 5905 5908 5912 5914 5919 5922 5922 5925 5927 5929 5931 5936 5936 5937 5938 5940 5943 5944 5946 5946 5939 5936 5932 5927 5925 5922 5918
5833 5838 5843 5848 5852 5858 5863 5867 5872 5877 5879 5878 5882 5888 5892 5895 5898 5899 5902 5904 5907 5911 5914 5915 5918 5921 5924 5925 5927 5931 5932 5934 5935 5938 5941 5942 5942 5944 5940 5932 5931 5925 5922 5920 5916
5827 5831 5835 5839 5845 5851 5856 5861 5867 5868 5873 5876 5879 5883 5887 5890 5893 5896 5899 5901 5905 5908 5911 5912 5914 5917 5920 5922 5924 5927 5930 5934 5937 5938 5938 5936 5938 5941 5933 5929 5928 5923 5921 5919 5916
5820 5824 5827 5831 5837 5843 5849 5854 5856 5863 5868 5868 5873 5878 5883 5886 5888 5891 5895 5898 5901 5904 5908 5910 5913 5913 5915 5919 5922 5923 5928 5934 5936 5937 5936 5932 5934 5934 5928 5926 5924 5921 5920 5916 5913
5814 5817 5819 5823 5829 5834 5841 5845 5851 5858 5861 5859 5868 5873 5877 5880 5884 5886 5890 5894 5897 5900 5903 5909 5910 5911 5911 5914 5918 5922 5922 5929 5930 5931 5931 5932 5928 5926 5925 5922 5920 5919 5917 5915 5912
5808 5812 5815 5818 5822 5827 5832 5838 5845 5845 5849 5856 5862 5868 5873 5876 5877 5881 5885 5890 5893 5895 5897 5904 5905 5907 5907 5910 5913 5916 5921 5923 5925 5927 5929 5929 5925 5925 5920 5920 5917 5916 5914 5913 5911
5803 5807 5810 5813 5816 5819 5825 5832 5835 5838 5845 5849 5854 5859 5864 5870 5872 5878 5881 5885 5887 5891 5892 5897 5901 5909 5904 5905 5910 5912 5914 5919 5924 5924 5924 5920 5918 5916 5915 5917 5915 5914 5912 5909 5908
5798 5800 5803 5807 5812 5815 5819 5823 5825 5833 5837 5841 5845 5850 5853 5859 5862 5870 5877 5880 5879 5885 5887 5892 5895 5899 5903 5902 5904 5912 5914 5914 5917 5920 5920 5919 5911 5915 5913 5914 5913 5911 5909 5907 5906
5791 5794 5797 5801 5805 5809 5812 5816 5821 5824 5829 5833 5837 5841 5844 5850 5856 5862 5869 5869 5872 5879 5883 5886 5889 5893 5897 5901 5900 5902 5906 5909 5913 5912 5913 5914 5914 5910 5905 5908 5909 5908 5907 5905 5904
5786 5788 5791 5795 5797 5802 5805 5810 5814 5817 5821 5826 5830 5833 5837 5843 5848 5854 5859 5861 5868 5873 5873 5880 5882 5885 5895 5899 5902 5897 5899 5902 5905 5909 5910 5911 5906 5905 5898 5903 5905 5905 5904 5903 5901
5779 5781 5785 5787 5791 5794 5798 5802 5807 5811 5816 5819 5823 5827 5832 5836 5841 5847 5853 5858 5862 5864 5869 5872 5875 5880 5885 5889 5894 5896 5895 5896 5897 5901 5906 5901 5883 5886 5884 5897 5899 5900 5900 5898 5897
5773 5775 5778 5779 5785 5789 5792 5796 5800 5803 5807 5813 5818 5822 5825 5828 5834 5842 5846 5853 5855 5858 5862 5866 5869 5874 5876 5882 5887 5888 5891 5893 5893 5897 5899 5900 5889 5889 5890 5890 5894 5895 5894 5893 5892
5767 5769 5771 5772 5777 5781 5784 5786 5791 5794 5802 5806 5809 5814 5816 5821 5825 5829 5830 5837 5844 5847 5854 5858 5863 5867 5870 5876 5880 5882 5885 5888 5889 5891 5895 5897 5886 5884 5886 5890 5891 5890 5889 5888 5887
Wind_Speed
27 23 24 23 25 24 17 15 12 9 9 8 7 12 11 6 4 7 7 10 16 15 13 11 10 12 9 8 11 13 10 16 4 8 7 8 7 11 12 15 18 19 18 19 22
28 27 25 25 25 21 16 16 12 11 11 9 8 12 12 8 6 10 8 12 14 16 13 12 13 16 11 10 9 5 14 11 6 4 3 6 8 5 13 13 15 16 18 21 25
29 27 27 27 25 21 15 13 13 14 13 10 10 11 12 10 8 7 11 14 15 14 12 12 14 16 13 10 4 7 5 2 3 1 3 1 7 5 9 9 13 15 18 22 21
27 27 29 25 24 22 13 13 13 13 13 13 11 10 12 11 9 10 12 17 16 14 12 11 12 17 14 3 6 11 7 7 4 2 2 2 2 6 7 7 10 14 20 21 23
33 30 28 26 24 22 17 15 15 15 14 13 12 12 11 12 10 10 12 16 17 15 15 14 13 15 11 5 10 5 7 6 3 5 2 2 1 4 5 7 11 16 19 21 24
32 29 28 27 23 19 18 16 18 15 15 13 13 12 12 12 11 11 11 14 15 15 18 19 20 19 17 15 10 10 10 6 3 7 1 1 4 6 8 7 12 15 16 20 24
32 31 30 26 23 21 19 18 18 16 15 16 14 13 14 12 13 12 12 13 13 16 20 22 19 19 14 12 12 12 7 3 7 6 5 7 8 8 4 11 13 15 16 20 22
31 30 29 27 27 24 20 19 19 16 16 17 14 13 13 14 13 14 14 14 14 17 19 22 23 22 22 15 13 7 3 7 13 16 11 5 9 18 12 23 13 15 18 20 21
33 31 29 27 26 27 24 19 21 20 17 15 14 13 14 14 14 15 15 15 15 19 20 19 20 22 20 14 3 9 13 17 5 13 14 7 6 17 16 15 13 14 15 21 24
36 33 31 30 28 28 27 22 21 23 21 20 15 13 14 15 15 16 16 16 16 19 21 21 19 18 17 13 8 9 11 10 10 7 9 5 10 7 21 9 11 16 16 23 26
38 36 34 33 31 31 29 26 23 25 26 24 21 19 14 14 15 16 16 16 16 17 21 23 23 21 16 15 15 19 12 15 12 12 8 6 7 11 11 10 14 15 21 22 22
39 38 37 36 34 33 32 30 27 25 23 27 27 24 19 15 15 17 18 18 17 17 19 21 23 18 19 27 25 20 14 11 11 14 9 6 6 13 17 14 12 16 22 20 23
40 39 38 37 36 34 33 31 30 27 25 25 22 23 24 20 18 17 20 20 18 18 18 21 11 25 19 18 19 16 14 12 14 12 6 9 10 20 24 27 18 15 16 19 21
38 39 39 39 38 35 34 32 29 28 26 25 26 25 21 22 20 19 19 21 21 19 20 22 23 18 18 16 14 13 13 15 14 11 1 17 3 14 25 30 19 13 16 17 20
34 36 39 39 38 38 32 32 30 28 26 28 27 22 22 23 22 19 20 21 22 22 21 17 22 18 18 16 14 10 15 14 12 12 11 10 10 12 18 11 17 16 14 18 22
34 36 37 39 39 36 35 32 29 28 27 32 29 26 24 23 23 22 20 21 24 24 23 24 21 19 18 17 16 13 13 10 10 10 12 13 12 5 16 26 22 16 15 18 21
28 29 34 39 39 37 35 33 32 34 31 27 27 25 25 25 25 23 21 20 22 22 22 24 22 21 20 19 16 15 11 7 8 9 11 16 11 10 23 23 16 14 14 17 20
27 27 29 35 39 39 37 36 38 32 27 31 31 27 25 26 28 27 26 22 21 22 15 18 21 24 23 20 13 17 15 11 7 12 17 22 16 13 17 14 11 13 12 18 18
24 22 23 28 35 39 40 40 38 34 36 37 33 30 26 27 26 28 28 24 22 22 24 14 18 18 25 22 20 13 17 14 17 16 15 10 9 16 12 11 11 12 13 15 15
24 22 21 25 30 34 39 40 38 44 40 37 30 22 22 22 31 27 26 27 24 24 24 17 18 19 20 22 23 22 15 16 14 14 15 13 16 8 14 10 10 13 13 13 14
27 27 24 24 25 31 34 32 39 39 35 34 32 30 29 22 22 22 24 24 27 25 25 25 24 14 20 25 20 22 23 18 13 12 15 16 15 17 22 14 11 13 13 13 15
27 31 28 28 29 28 29 32 39 31 33 32 35 36 38 29 34 25 21 19 26 26 27 24 22 22 16 18 19 19 18 19 17 16 16 19 24 14 13 17 16 15 14 15 17
23 23 29 31 31 31 34 31 28 31 31 33 33 34 40 41 40 33 23 27 32 26 26 25 27 21 24 17 23 25 23 20 18 20 17 9 16 17 24 20 19 13 14 17 20
17 22 26 28 32 32 34 31 32 32 32 33 32 35 37 37 41 39 38 40 34 29 33 30 27 28 19 17 18 25 23 22 23 20 16 19 28 29 18 18 15 14 17 19 20
20 23 21 29 31 31 33 34 32 34 33 35 33 33 30 32 38 40 38 24 35 35 31 32 34 29 27 24 12 17 19 19 22 21 18 27 10 35 18 14 19 21 21 20 18
20 22 23 28 28 31 31 30 32 35 38 35 33 31 30 33 33 21 32 24 28 35 34 32 32 28 30 27 20 22 19 20 20 21 23 20 28 23 28 17 18 20 22 21 21
21 23 24 26 28 31 34 37 35 36 34 35 39 38 38 34 33 42 46 48 43 41 37 35 32 30 31 24 24 28 22 20 18 20 20 20 30 28 23 27 20 21 22 21 24
Wind_Direction
213 217 224 229 239 247 262 267 249 231 222 237 235 201 206 242 249 229 220 181 169 173 188 191 178 172 150 153 112 118 229 128 44 55 40 348 356 52 60 49 49 48 47 41 38
212 220 225 236 245 251 259 263 231 221 222 233 232 213 213 233 255 237 202 200 193 172 170 173 177 173 155 152 127 65 315 65 201 132 180 325 125 7 37 29 37 37 36 34 30
215 221 224 237 246 251 259 238 225 220 227 229 235 223 220 226 248 242 204 200 204 186 176 168 171 176 165 145 202 105 260 245 319 192 101 29 12 354 359 49 19 20 20 26 21
213 218 227 233 244 257 241 229 232 224 233 230 233 227 227 236 247 228 202 196 208 195 190 183 170 167 164 206 239 152 250 201 255 258 30 2 305 323 69 315 9 14 20 15 20
218 223 228 236 242 249 256 250 231 233 235 236 239 232 227 230 232 218 205 201 206 200 196 192 186 177 182 212 207 144 249 227 277 269 222 250 244 192 358 313 353 11 10 8 12
222 225 228 235 243 248 251 238 230 233 233 237 237 231 226 224 222 214 207 204 207 199 191 192 195 184 174 214 177 222 215 235 233 271 143 354 280 311 319 337 339 355 353 2 19
226 229 232 228 234 245 247 239 226 229 232 236 233 229 227 214 214 211 211 205 200 195 195 187 187 187 195 189 212 186 176 297 297 251 247 281 268 205 301 327 325 335 338 346 3
226 227 228 231 227 236 243 240 224 232 235 237 234 230 230 222 211 208 211 206 196 195 198 192 191 192 181 202 176 198 262 233 213 274 267 279 317 53 279 307 312 323 331 336 350
226 226 226 226 227 228 235 238 222 228 227 231 230 231 229 228 215 209 209 208 199 193 200 194 193 190 194 184 214 254 230 175 271 268 252 275 232 339 302 297 318 320 333 333 345
228 228 226 226 225 225 230 234 230 224 224 232 235 235 226 227 221 213 209 208 202 192 198 196 193 194 193 206 202 238 254 296 269 261 261 292 290 281 288 277 321 322 337 322 327
229 228 229 228 226 226 227 231 233 229 227 232 232 242 237 235 230 219 212 208 205 197 196 199 199 201 206 230 207 238 243 223 250 266 240 279 234 251 294 298 302 318 326 311 320
230 230 229 230 230 228 229 231 233 237 233 234 236 241 239 237 236 227 219 211 206 198 193 203 206 204 218 208 221 230 237 252 267 270 258 260 262 251 327 318 305 319 321 327 333
230 231 231 231 231 231 230 230 231 233 234 237 234 237 238 239 236 232 224 218 214 209 196 198 214 225 221 219 219 228 234 247 261 264 282 284 307 263 305 316 308 318 319 326 327
230 230 230 231 231 230 230 229 229 231 234 237 233 234 235 233 235 233 228 223 220 219 215 211 215 217 217 217 221 232 260 247 242 248 317 267 264 292 298 308 310 310 316 319 317
233 232 230 230 230 230 229 229 228 228 233 240 232 234 237 231 233 232 230 226 223 222 223 225 228 224 220 220 221 203 224 234 250 249 261 257 275 284 305 292 316 313 315 311 317
234 234 232 230 229 228 228 227 227 226 226 235 237 232 233 232 235 237 231 227 226 226 223 225 228 229 228 229 229 214 239 254 258 253 255 280 245 293 251 264 297 306 305 307 311
237 237 235 232 228 227 226 225 224 223 226 238 236 233 234 234 235 237 234 232 232 230 230 234 235 232 231 235 234 234 228 247 270 274 265 233 258 236 265 280 288 290 300 306 310
241 242 239 231 224 222 223 222 224 223 220 232 230 231 231 233 234 237 237 233 230 225 210 247 243 237 235 233 242 240 211 218 241 256 259 273 271 249 270 281 280 287 303 302 310
235 238 236 229 222 220 222 224 226 226 224 234 231 230 233 233 233 233 232 234 234 229 226 235 231 252 232 227 225 247 225 225 242 245 236 271 250 273 278 281 280 291 290 303 311
227 227 226 225 222 221 223 224 226 230 231 234 233 234 229 236 234 232 233 232 230 234 227 224 216 235 237 228 229 204 237 225 239 243 244 263 237 252 264 268 271 279 295 309 323
228 226 222 220 219 222 225 224 227 233 230 227 223 216 215 211 224 222 226 231 228 229 232 225 231 228 231 234 230 229 232 218 216 235 244 259 263 210 231 260 256 269 287 302 320
226 228 224 223 224 223 220 222 226 228 226 224 226 225 223 222 228 214 226 221 236 222 230 226 233 204 235 249 234 217 238 235 230 253 245 238 283 285 268 279 256 267 290 309 321
226 228 226 225 227 227 226 227 222 222 221 222 223 224 225 226 228 219 212 223 230 219 225 219 224 228 224 234 239 237 226 219 231 226 252 238 257 258 264 262 259 274 290 308 314
233 231 227 227 231 232 230 227 223 221 221 221 223 226 227 227 230 223 222 228 229 220 225 223 222 222 218 234 246 271 245 235 232 235 241 242 256 254 260 252 256 269 288 303 311
240 238 236 232 228 228 230 229 227 225 224 223 224 228 230 231 229 226 227 222 224 224 223 226 229 228 215 211 235 228 243 235 235 227 228 260 196 239 185 253 270 282 292 306 309
249 246 238 239 233 232 229 229 226 227 223 223 226 229 232 233 228 214 226 229 230 230 223 224 230 227 228 219 226 237 233 238 233 226 229 239 276 263 267 290 280 289 299 304 306
250 250 244 240 232 229 230 225 224 228 229 229 228 226 232 233 227 220 223 220 221 220 220 228 230 230 234 232 230 241 228 236 233 226 228 245 256 264 270 268 277 295 299 304 308